Погода в Вилине

Россия / Республика Крым     44°50′41″N   33°39′17″E
темп.,
°C
ветер,
м/с
пор.,
м/с
влажн.,
%
обл.,
%
осадки,
мм/ч
давл.,
гПа
погр.,
м
18 мая, вт
вт1800:00+11ю33945 0.0 100965
03:00+11ююв359086 0.0 100880
06:00+12ююв3684100 0.0 1008106
09:00+19ю585888 0.0 1007865
12:00+20ю811533 0.1 10071126
15:00+19юз9107298 0.6 1007943
18:00+13юз479573 3.4 1008347
21:00+12ю4892100 3.9 1008245
19 мая, ср
ср1900:00+13ююз8148998 0.1 1008569
03:00+13юз714860 0.9 1008552
06:00+12зюз7138242 0.7 1009748
09:00+15юз9117048 0.8 10101276
12:00+14зюз8128198 0.2 10111131
15:00+16зюз9116952 0.3 10121111
18:00+16юз69693 0.0 1013656
21:00+12ю3382100 0.0 101438
20 мая, чт
чт2000:00+11ююв337166 0.0 101346
03:00+11юв3368100 0.0 101235
06:00+11вюв336861 0.0 101131
09:00+19всв2245100 0.0 1011389
12:00+24ссв1329100 0.0 10101560
15:00+24зюз33353 0.0 1008907
18:00+24ю01383 0.0 1007523
21:00+15в01627 0.0 100814
21 мая, пт
пт2100:00+13в2277100 0.0 100921
03:00+13юв115415 0.0 100911
06:00+13ю007464 0.0 101010
09:00+17сз226496 0.0 1010379
12:00+22ссз3352100 0.0 1009652
15:00+23сз44565 0.0 1009662
18:00+19сз3471100 0.0 1009314
21:00+16в238899 0.0 100841
22 мая, сб
сб2200:00+15всв11895 0.2 100815
03:00+13ссв33904 0.2 100746
06:00+14всв22825 0.0 100721
09:00+21ссв467047 0.0 1007559
12:00+25ссв54665 0.0 1006781
15:00+27с33530 0.0 10061069
18:00+25ссз355939 0.0 1007690
21:00+20всв2477100 0.1 100954